Year,Month,Day,Hour,Minute,Value (Times are PST for temperature in C)
2008,02,24,00,09,6.30
2008,02,24,00,29,6.10
2008,02,24,00,51,5.90
2008,02,24,01,10,5.90
2008,02,24,01,31,5.80
2008,02,24,01,52,5.70
2008,02,24,01,56,5.70
2008,02,24,01,57,5.70
2008,02,24,02,18,5.70
2008,02,24,02,34,5.80
2008,02,24,02,54,5.70
2008,02,24,03,16,5.80
2008,02,24,03,35,5.70
2008,02,24,03,53,5.70
2008,02,24,03,57,5.70
2008,02,24,04,00,5.70
2008,02,24,04,16,5.70
2008,02,24,04,38,5.80
2008,02,24,04,56,5.60
2008,02,24,05,12,5.50
2008,02,24,05,31,5.40
2008,02,24,05,39,5.40
2008,02,24,05,40,5.40
2008,02,24,05,41,5.40
2008,02,24,05,53,5.40
2008,02,24,06,10,5.30
2008,02,24,06,28,5.10
2008,02,24,06,47,5.10
2008,02,24,07,04,5.10
2008,02,24,07,25,5.10
2008,02,24,07,45,5.20
2008,02,24,08,01,5.30
2008,02,24,08,21,5.40
2008,02,24,08,39,5.60
2008,02,24,08,58,5.80
2008,02,24,09,18,6.10
2008,02,24,09,33,6.30
2008,02,24,09,52,6.40
2008,02,24,10,12,6.60
2008,02,24,10,31,6.90
2008,02,24,10,53,7.30
2008,02,24,11,04,7.50
2008,02,24,11,13,7.80
2008,02,24,11,18,7.90
2008,02,24,11,26,8.20
2008,02,24,11,42,8.30
2008,02,24,11,49,8.40
2008,02,24,12,00,8.40
2008,02,24,12,15,8.70
2008,02,24,12,33,8.90
2008,02,24,12,53,9.00
2008,02,24,13,03,9.10
2008,02,24,13,24,9.60
2008,02,24,13,43,9.90
2008,02,24,14,05,10.00
2008,02,24,14,27,10.10
2008,02,24,14,47,10.30
2008,02,24,15,01,10.50
2008,02,24,15,02,10.50
2008,02,24,15,03,10.50
2008,02,24,15,21,10.60
2008,02,24,15,31,10.80
2008,02,24,15,36,11.10
2008,02,24,15,56,11.30
2008,02,24,16,15,11.00
2008,02,24,16,33,10.70
2008,02,24,16,53,10.30
2008,02,24,17,08,10.10
2008,02,24,17,28,9.80
2008,02,24,17,46,9.70
2008,02,24,18,04,9.70
2008,02,24,18,25,9.20
2008,02,24,18,41,8.90
2008,02,24,19,03,8.70
2008,02,24,19,22,8.60
2008,02,24,19,41,8.50
2008,02,24,20,00,8.40
2008,02,24,20,07,8.40
2008,02,24,20,21,8.20
2008,02,24,20,39,8.10
2008,02,24,20,55,8.30
2008,02,24,21,08,8.40
2008,02,24,21,24,8.20
2008,02,24,21,26,8.20
2008,02,24,21,27,8.20
2008,02,24,21,28,8.20
2008,02,24,21,29,8.20
2008,02,24,21,30,8.10
2008,02,24,21,31,8.10
2008,02,24,21,32,8.10
2008,02,24,21,33,8.10
2008,02,24,21,34,8.00
2008,02,24,21,35,8.00
2008,02,24,21,46,7.80
2008,02,24,22,00,7.70
2008,02,24,22,10,7.60
2008,02,24,22,19,7.40
2008,02,24,22,37,7.40
2008,02,24,22,51,7.30
2008,02,24,23,10,6.60
2008,02,24,23,27,6.00
2008,02,24,23,45,5.30
2008,02,24,23,57,4.90
